[[{"header":{"parameterUnit":"m.s-1","parameterCategory":2,"la1":30.2991,"la2":30.254,"lo1":-89.0895,"lo2":-89.0444,"dy":0.0017,"dx":0.0017,"nx":28,"ny":28,"refTime":"2025-09-14T03:00:00:Z","depth":"0","parameterNumber":2,"parameterNumberName":"U-component_of_CURRENTS"},"data":[0,0,0,0,0,0,0,0,0,0,0,0,0,0,0,0,0,0,0,0,0,0,0,0,0,0,0,0,0,0,0,0,0,0,0,0,0,0,0,0,0,0,0,0,0,0,0,0,0,0,0,0,0,0,0,0,0,0,0.3541,0.3543,0,0.3594,0.3593,0.3592,0.3517,0.3516,0.3515,0.3514,0.3419,0.3417,0.3416,0,0,0,0,0,0,0,0,0,0,0,0,0,0.3313,0.3316,0.354,0.3543,0.3545,0.3594,0.3593,0.3592,0.3517,0.3516,0.3515,0.3514,0.3419,0.3417,0.3415,0,0,0,0,0,0,0,0,0,0,0,0,0,0.3377,0.3317,0.354,0.3527,0.3528,0.3594,0.3593,0.3592,0.3518,0.3516,0.3515,0.3513,0.342,0.3417,0.3415,0.3431,0,0,0.3408,0.3407,0,0,0,0,0,0,0,0,0.3373,0.3383,0.3527,0.3528,0.3529,0.3563,0.3479,0.3537,0.3518,0.3502,0.3514,0.3512,0.3466,0.346,0.345,0.3426,0.3422,0.3408,0.3406,0.3405,0.3404,0,0,0,0,0,0,0,0.3369,0.338,0.3543,0.353,0.3532,0.3499,0.3505,0.3488,0.3475,0.3504,0.3503,0.3538,0.3463,0.3452,0.3447,0.3421,0.3408,0.3405,0.3404,0.3403,0.3429,0.3431,0,0,0,0,0,0,0.3405,0.3377,0.3542,0.3547,0.3466,0.3506,0.3512,0.3539,0.3479,0.3475,0.3539,0.3535,0.3457,0.345,0.3443,0.348,0.3405,0.3403,0.3401,0.3427,0.343,0.3432,0,0,0,0,0,0,0.3399,0.3418,0.354,0.3477,0.3493,0.3514,0.3544,0.3541,0.3534,0.3511,0.3499,0.3537,0.3455,0.3446,0.3417,0.3474,0.3402,0.34,0.3425,0.3428,0.3431,0.3539,0,0,0,0,0,0,0.3392,0.3415,0.3427,0.348,0.3498,0.3583,0.3547,0.3544,0.3567,0.356,0.3506,0.3495,0.3454,0.3421,0.3414,0.347,0.3398,0.3422,0.3426,0.343,0.3533,0.3545,0.3556,0,0,0,0,0,0.3383,0.3412,0.3427,0.3447,0.352,0.3586,0.3589,0.3586,0.3569,0.3569,0.3523,0.3497,0.3443,0.3419,0.3412,0.3468,0.342,0.3425,0.343,0.3527,0.3543,0.3556,0,0,0,0,0,0,0.3303,0.3411,0.3427,0.3482,0.3537,0.358,0.3591,0.3599,0.3565,0.355,0.3502,0.3488,0.3493,0.3463,0.3439,0.349,0.3438,0.3441,0.3515,0.3529,0.3541,0.3506,0.3396,0,0,0,0,0,0.3304,0.3361,0.3446,0.349,0.3521,0.3557,0.3579,0.359,0.3591,0.3574,0.3544,0.3517,0.3511,0.3501,0.3482,0.3497,0.3478,0.3537,0.3549,0.3559,0.3528,0.3567,0.3579,0.3448,0.3448,0.3448,0,0,0.3292,0.3359,0.339,0.348,0.3514,0.3552,0.356,0.3611,0.3629,0.3571,0.3556,0.355,0.3523,0.3539,0.3542,0.3517,0.3593,0.3565,0.3574,0.3535,0.3573,0.3586,0.3597,0.3451,0.345,0.345,0,0,0.3291,0.3352,0.3389,0.3439,0.3524,0.3556,0.3579,0.3631,0.3634,0.3647,0.3618,0.3632,0.3614,0.3612,0.3608,0.3675,0.3653,0.3696,0.3727,0.3769,0.3779,0.3788,0.3805,0.3815,0.3706,0.3706,0.3706,0,0.3259,0.3327,0.3405,0.3446,0.3489,0.356,0.359,0.3618,0.3648,0.3655,0.365,0.3656,0.3648,0.3671,0.3701,0.3702,0.3708,0.3677,0.3783,0.3792,0.3799,0.3814,0.3823,0.3712,0.3711,0.371,0.371,0,0.328,0.3331,0.3361,0.3438,0.3486,0.3538,0.361,0.3637,0.3667,0.3695,0.3731,0.3731,0.3727,0.377,0.375,0.3816,0.3799,0.3795,0.3745,0.3818,0.383,0.3838,0.372,0.3718,0.3716,0.3715,0,0,0.3198,0.3346,0.3349,0.339,0.349,0.3536,0.3581,0.3645,0.3676,0.3719,0.3749,0.3786,0.38,0.3795,0.3812,0.386,0.3946,0.3853,0.3853,0.3864,0.4025,0.3817,0.3805,0.397,0.3971,0.3973,0.4022,0,0.3177,0.3265,0.3334,0.3395,0.3446,0.3523,0.3564,0.3629,0.3686,0.3733,0.3778,0.3813,0.3811,0.3836,0.3881,0.3926,0.3966,0.3931,0.3953,0.3953,0.3755,0.3806,0.3573,0.3578,0.4028,0.4029,0.403,0,0.3147,0.3223,0.329,0.3405,0.3428,0.3463,0.3551,0.3605,0.3692,0.3736,0.378,0.3812,0.3874,0.3879,0.3962,0.3943,0.3975,0.4014,0.4017,0.3774,0.3756,0.3573,0.3573,0.3492,0.4041,0.404,0.4039,0,0.3069,0.3178,0.3239,0.3278,0.3413,0.3435,0.3498,0.3592,0.3629,0.374,0.376,0.3845,0.3869,0.3943,0.3969,0.3995,0.4046,0.4098,0.3936,0.3922,0.3692,0.3653,0.3597,0.4147,0.4147,0.4147,0.4147,0,0.303,0.3069,0.3209,0.3246,0.3296,0.34,0.3448,0.3528,0.3612,0.3652,0.3747,0.3779,0.3887,0.391,0.3974,0.3928,0.404,0.3918,0.3913,0.3724,0.3689,0.3578,0.3572,0.4149,0.4148,0.4148,0.4148,0,0.2942,0.3038,0.3106,0.3236,0.3267,0.3304,0.3396,0.3434,0.3529,0.3578,0.3605,0.3718,0.3751,0.3789,0.39,0.3881,0.3778,0.3862,0.3603,0.3562,0.3326,0.3334,0.3148,0.3071,0.3729,0.3724,0.372,0,0.2913,0.2951,0.3075,0.3103,0.3157,0.3222,0.3262,0.3377,0.3422,0.3537,0.3554,0.3585,0.358,0.3599,0.3579,0.3575,0.3554,0.3367,0.3361,0.3242,0.3254,0.3212,0.3162,0.314,0.3132,0.3125,0.3119,0,0.2854,0.2898,0.296,0.3021,0.306,0.3099,0.3173,0.3181,0.3315,0.3328,0.3372,0.3372,0.3352,0.3226,0.3158,0.316,0.3164,0.3218,0.3184,0.2826,0.2689,0.2633,0.3187,0.3056,0.3062,0.3067,0.307,0.3073,0.2785,0.2804,0.2882,0.2911,0.2955,0.2959,0.2928,0.2995,0.2997,0.2973,0.3118,0.3012,0.2945,0.281,0.2789,0.2566,0.2712,0.2509,0.2551,0.2536,0.2363,0.2732,0.2528,0.2531,0.2533,0.2536,0.2538,0,0.2687,0.2725,0.2767,0.2788,0.2759,0.2828,0.2844,0.2768,0.2693,0.2711,0.2665,0.2476,0.2299,0.225,0.2053,0.1952,0.194,0.1894,0.1834,0.1842,0.2239,0.2111,0.1693,0.1693,0.1693,0.1693,0.1693,0.1693,0.2637,0.2635,0.2652,0.2571,0.2574,0.2472,0.2431,0.2346,0.2316,0.2116,0.1976,0.1944,0.1922,0.175,0.1564,0.1519,0.1493,0.1327,0.1466,0.1791,0.1855,0.1915,0.1794,0.1316,0.1316,0.0956,0.0953,0.0951]},{"header":{"parameterUnit":"m.s-1","parameterCategory":2,"la1":30.2991,"la2":30.254,"lo1":-89.0895,"lo2":-89.0444,"dy":0.0017,"dx":0.0017,"nx":28,"ny":28,"refTime":"2025-09-14T03:00:00:Z","depth":"0","parameterNumber":3,"parameterNumberName":"V-component_of_CURRENTS"},"data":[0,0,0,0,0,0,0,0,0,0,0,0,0,0,0,0,0,0,0,0,0,0,0,0,0,0,0,0,0,0,0,0,0,0,0,0,0,0,0,0,0,0,0,0,0,0,0,0,0,0,0,0,0,0,0,0,0,0,0.0195,0.0194,0,0.015,0.0149,0.0148,0.0094,0.0093,0.0092,0.0092,0.0094,0.0095,0.0096,0,0,0,0,0,0,0,0,0,0,0,0,0,0.02,0.0201,0.0195,0.0194,0.0194,0.015,0.0149,0.0148,0.0094,0.0093,0.0092,0.0091,0.0094,0.0095,0.0096,0,0,0,0,0,0,0,0,0,0,0,0,0,0.018,0.0201,0.0195,0.0162,0.0159,0.015,0.0149,0.0148,0.0094,0.0093,0.0092,0.0091,0.0094,0.0095,0.0096,0.0127,0,0,0.01,0.01,0,0,0,0,0,0,0,0,0.0181,0.018,0.0167,0.0164,0.0161,0.0127,0.0152,0.0144,0.0094,0.0118,0.0092,0.009,0.0111,0.0111,0.0103,0.0127,0.0127,0.01,0.0101,0.0101,0.0102,0,0,0,0,0,0,0,0.0183,0.0181,0.0176,0.0167,0.0163,0.0138,0.0134,0.015,0.0122,0.0116,0.0112,0.0109,0.0109,0.0102,0.0103,0.0127,0.01,0.0101,0.0102,0.0102,0.0133,0.0133,0,0,0,0,0,0,0.0193,0.0183,0.0178,0.0175,0.0169,0.0139,0.0135,0.0138,0.012,0.0116,0.011,0.0106,0.01,0.0102,0.0103,0.0103,0.0101,0.0102,0.0103,0.0133,0.0133,0.0133,0,0,0,0,0,0,0.0194,0.0194,0.0179,0.0178,0.0174,0.0141,0.0145,0.0138,0.0126,0.0115,0.0112,0.0104,0.01,0.0101,0.0108,0.0104,0.0103,0.0104,0.0133,0.0133,0.0133,0.0126,0,0,0,0,0,0,0.0194,0.0194,0.0197,0.0179,0.0175,0.0178,0.0146,0.0138,0.0126,0.0121,0.011,0.0109,0.0099,0.0106,0.0109,0.0106,0.0105,0.0132,0.0133,0.0133,0.0126,0.0126,0.0126,0,0,0,0,0,0.0195,0.0206,0.0198,0.0197,0.0182,0.0179,0.0175,0.0145,0.0127,0.0129,0.0113,0.0109,0.0109,0.0107,0.0111,0.0108,0.0132,0.0133,0.0133,0.0126,0.0126,0.0126,0,0,0,0,0,0,0.0208,0.0201,0.0192,0.0199,0.0192,0.017,0.0168,0.0151,0.0139,0.0134,0.0118,0.0116,0.0117,0.012,0.0119,0.0117,0.0118,0.0119,0.0112,0.0112,0.0111,0.0135,0.0106,0,0,0,0,0,0.0215,0.022,0.021,0.0215,0.0216,0.0194,0.0188,0.0172,0.016,0.0152,0.014,0.013,0.0123,0.0123,0.0122,0.0132,0.016,0.0131,0.013,0.013,0.0152,0.0193,0.0199,0.0134,0.0134,0.0134,0,0,0.0219,0.0217,0.0218,0.0218,0.021,0.0209,0.0187,0.0186,0.0176,0.0159,0.0145,0.0135,0.0126,0.0123,0.0124,0.0124,0.016,0.013,0.013,0.0153,0.0194,0.0201,0.0207,0.0134,0.0134,0.0134,0,0,0.0234,0.0234,0.0243,0.024,0.0235,0.0224,0.0227,0.0211,0.0195,0.0191,0.0164,0.0159,0.0152,0.0139,0.0132,0.014,0.0158,0.013,0.0149,0.0188,0.0195,0.02,0.0232,0.024,0.0129,0.0129,0.0129,0,0.0237,0.0248,0.0244,0.0251,0.0249,0.0233,0.024,0.0225,0.0207,0.0207,0.019,0.0178,0.0162,0.016,0.0145,0.014,0.0166,0.0147,0.019,0.0196,0.0202,0.0233,0.0243,0.0129,0.0129,0.0129,0.0129,0,0.026,0.0262,0.027,0.027,0.0269,0.0276,0.0261,0.0257,0.024,0.0227,0.0227,0.0207,0.0205,0.0184,0.0163,0.0187,0.0191,0.0184,0.0192,0.0209,0.0239,0.025,0.0128,0.0128,0.0129,0.0129,0,0,0.0285,0.0284,0.0287,0.0289,0.0282,0.0288,0.028,0.0279,0.0291,0.0266,0.0285,0.0245,0.0244,0.0238,0.0212,0.0231,0.0273,0.0223,0.0226,0.0259,0.0361,0.0322,0.033,0.0275,0.0277,0.0278,0.0361,0,0.0303,0.0319,0.0313,0.0322,0.0329,0.0316,0.0316,0.0312,0.0311,0.0327,0.0306,0.0318,0.026,0.0269,0.0273,0.0285,0.0302,0.0251,0.0338,0.0341,0.0308,0.0342,0.0319,0.0388,0.0371,0.0373,0.0374,0,0.033,0.0336,0.0352,0.0355,0.036,0.0364,0.0384,0.0383,0.0395,0.0402,0.0407,0.0398,0.0409,0.0368,0.04,0.0372,0.0369,0.0371,0.0375,0.0356,0.0322,0.0371,0.0408,0.0338,0.039,0.0389,0.0388,0,0.036,0.0364,0.038,0.038,0.0383,0.0393,0.0399,0.0411,0.0436,0.0465,0.0507,0.05,0.0534,0.0524,0.0496,0.0466,0.0545,0.0509,0.047,0.0467,0.0476,0.0471,0.0464,0.0547,0.0547,0.0546,0.0546,0,0.0386,0.0399,0.0399,0.0409,0.0445,0.043,0.0479,0.0488,0.0525,0.0591,0.0557,0.0624,0.0581,0.0602,0.0553,0.0549,0.0593,0.0496,0.0495,0.0469,0.0462,0.0423,0.0378,0.0549,0.0549,0.0548,0.0548,0,0.0422,0.0416,0.0442,0.0453,0.0462,0.0493,0.0537,0.0582,0.0606,0.07,0.0721,0.075,0.0783,0.0718,0.0727,0.0647,0.0591,0.061,0.0572,0.0564,0.0439,0.0394,0.0418,0.0397,0.0595,0.0594,0.0594,0,0.0446,0.0462,0.0489,0.0523,0.0535,0.0574,0.0616,0.0631,0.0693,0.0792,0.0859,0.0901,0.0953,0.0918,0.0786,0.07,0.0619,0.0609,0.0536,0.0446,0.0398,0.0369,0.0347,0.0547,0.0546,0.0546,0.0545,0,0.0503,0.0513,0.0538,0.0603,0.0651,0.0703,0.0764,0.0818,0.0869,0.0951,0.1079,0.1124,0.1073,0.0978,0.0816,0.0738,0.0547,0.0594,0.0529,0.0387,0.0334,0.0308,0.0469,0.0541,0.0541,0.0541,0.0542,0.0542,0.0558,0.0591,0.063,0.0694,0.0751,0.0832,0.0885,0.0964,0.1065,0.1181,0.1229,0.1301,0.1125,0.0904,0.0782,0.051,0.0534,0.0429,0.0394,0.0382,0.0324,0.0462,0.0504,0.0505,0.0505,0.0505,0.0505,0,0.0622,0.0657,0.0724,0.0793,0.0865,0.0882,0.0987,0.1042,0.1167,0.1275,0.1365,0.1301,0.1096,0.0853,0.0492,0.0335,0.0282,0.0257,0.0217,0.0213,0.0368,0.0324,0.0296,0.0296,0.0296,0.0296,0.0296,0.0296,0.0659,0.0727,0.0752,0.0875,0.0931,0.1019,0.1078,0.1166,0.1246,0.1344,0.1363,0.1366,0.1168,0.0596,0.0235,0.0161,0.0072,0.0044,0.0023,0.0111,0.0124,0.0137,0.0085,0.0007,0.0007,-0.0116,-0.0118,-0.0119]}],[{"header":{"parameterUnit":"m.s-1","parameterCategory":2,"la1":30.2991,"la2":30.254,"lo1":-89.0895,"lo2":-89.0444,"dy":0.0017,"dx":0.0017,"nx":28,"ny":28,"refTime":"2025-09-14T03:00:00:Z","depth":"2","parameterNumber":2,"parameterNumberName":"U-component_of_CURRENTS"},"data":[0,0,0,0,0,0,0,0,0,0,0,0,0,0,0,0,0,0,0,0,0,0,0,0,0,0,0,0,0,0,0,0,0,0,0,0,0,0,0,0,0,0,0,0,0,0,0,0,0,0,0,0,0,0,0,0,0,0,0.1724,0.1724,0,0.1759,0.176,0.1761,0.1824,0.1824,0.1825,0.1825,0.1907,0.1909,0.191,0,0,0,0,0,0,0,0,0,0,0,0,0,0.1789,0.1788,0.1724,0.1724,0.1723,0.1759,0.176,0.1761,0.1824,0.1824,0.1825,0.1826,0.1907,0.1909,0.1911,0,0,0,0,0,0,0,0,0,0,0,0,0,0.1793,0.1787,0.1724,0.1754,0.1756,0.1759,0.176,0.1762,0.1824,0.1824,0.1825,0.1826,0.1906,0.1908,0.1911,0.191,0,0,0.1919,0.192,0,0,0,0,0,0,0,0,0.1792,0.1791,0.1749,0.1751,0.1754,0.1782,0.1813,0.1811,0.1823,0.1805,0.1825,0.1826,0.1864,0.187,0.1885,0.1914,0.1917,0.1919,0.192,0.1921,0.1922,0,0,0,0,0,0,0,0.1792,0.179,0.1745,0.1749,0.1752,0.1792,0.1793,0.1814,0.1836,0.1807,0.181,0.1802,0.1867,0.1882,0.1887,0.1919,0.1919,0.1921,0.1922,0.1923,0.2019,0.202,0,0,0,0,0,0,0.1768,0.1789,0.1744,0.1745,0.1768,0.1789,0.1791,0.1778,0.1835,0.1842,0.1802,0.1805,0.1877,0.1884,0.189,0.1953,0.1921,0.1924,0.1925,0.2018,0.202,0.2021,0,0,0,0,0,0,0.1769,0.1763,0.1742,0.1763,0.1763,0.1786,0.1771,0.1778,0.1812,0.1829,0.1839,0.1829,0.1878,0.1886,0.1947,0.1955,0.1925,0.1927,0.2017,0.2019,0.202,0.2041,0,0,0,0,0,0,0.1771,0.1763,0.1776,0.1761,0.176,0.1776,0.177,0.1778,0.1801,0.1807,0.1855,0.1863,0.188,0.1944,0.195,0.1957,0.1929,0.2016,0.2018,0.202,0.2039,0.2043,0.2046,0,0,0,0,0,0.1773,0.1786,0.1776,0.1772,0.1766,0.1777,0.1783,0.1807,0.1801,0.1836,0.1869,0.1862,0.1959,0.1948,0.1954,0.1962,0.2015,0.2017,0.202,0.2037,0.2042,0.2046,0,0,0,0,0,0,0.1835,0.1792,0.1781,0.1784,0.179,0.1786,0.1818,0.1813,0.1864,0.188,0.1888,0.1899,0.1956,0.1958,0.1944,0.1996,0.1981,0.1984,0.1991,0.1996,0.2,0.1991,0.1931,0,0,0,0,0,0.1844,0.1819,0.1811,0.1803,0.182,0.1817,0.183,0.1843,0.1865,0.1888,0.1903,0.193,0.1966,0.1982,0.2019,0.2046,0.2076,0.2052,0.2056,0.2059,0.2058,0.2155,0.2167,0.2028,0.2028,0.2028,0,0,0.1837,0.1826,0.1801,0.1811,0.182,0.1826,0.1831,0.1862,0.1868,0.1888,0.192,0.1956,0.1981,0.2026,0.2047,0.2029,0.2109,0.2062,0.2065,0.2061,0.2159,0.2172,0.2184,0.203,0.203,0.203,0,0,0.1831,0.1836,0.1828,0.1842,0.1866,0.1861,0.1869,0.1883,0.1915,0.1946,0.1964,0.2008,0.2039,0.2064,0.2077,0.2119,0.2138,0.2122,0.2122,0.2217,0.2229,0.224,0.2273,0.2288,0.211,0.211,0.211,0,0.1839,0.183,0.1833,0.1854,0.1866,0.1868,0.1887,0.1905,0.1929,0.198,0.1966,0.2034,0.2054,0.2102,0.2114,0.2126,0.2171,0.2102,0.2223,0.2235,0.2246,0.2278,0.2293,0.2111,0.2111,0.2111,0.2111,0,0.1838,0.1841,0.1851,0.1847,0.187,0.1893,0.191,0.1946,0.1962,0.199,0.2068,0.2084,0.2129,0.2127,0.2131,0.2206,0.2208,0.223,0.2212,0.2262,0.2291,0.2307,0.2113,0.2113,0.2112,0.2112,0,0,0.1818,0.1839,0.1848,0.1865,0.1884,0.1906,0.1931,0.1991,0.204,0.206,0.212,0.2152,0.2179,0.2193,0.2193,0.224,0.2342,0.2262,0.2267,0.2293,0.2526,0.2357,0.2357,0.2405,0.2409,0.2411,0.2506,0,0.1822,0.1855,0.1868,0.1885,0.1904,0.1939,0.1962,0.2024,0.2075,0.2136,0.2174,0.2248,0.2196,0.2239,0.2268,0.2343,0.239,0.2312,0.2474,0.2477,0.2321,0.2372,0.2169,0.2222,0.2521,0.2524,0.2526,0,0.1827,0.1851,0.1885,0.1929,0.1952,0.1968,0.2058,0.209,0.2185,0.2245,0.2298,0.2339,0.2391,0.2356,0.2459,0.2422,0.2476,0.251,0.2516,0.2361,0.2338,0.2226,0.224,0.2552,0.255,0.2548,0.2547,0,0.1819,0.1866,0.1899,0.1912,0.1957,0.2016,0.2058,0.2149,0.2206,0.2342,0.239,0.2462,0.2495,0.2575,0.258,0.258,0.268,0.2706,0.2591,0.2578,0.2433,0.24,0.2815,0.2815,0.2815,0.2814,0.2814,0,0.1813,0.1843,0.1912,0.1928,0.1996,0.2048,0.2137,0.2206,0.2296,0.2351,0.245,0.2466,0.2565,0.26,0.2631,0.2608,0.2731,0.2591,0.2602,0.2426,0.2394,0.2704,0.269,0.2818,0.2817,0.2816,0.2816,0,0.1778,0.1822,0.1857,0.1943,0.1982,0.2041,0.2152,0.2217,0.2319,0.2375,0.2431,0.2518,0.258,0.2608,0.2727,0.2653,0.2688,0.2661,0.2396,0.2371,0.2519,0.2506,0.2589,0.2584,0.258,0.2577,0.2574,0,0.1763,0.1773,0.1853,0.1896,0.1943,0.2039,0.2101,0.2219,0.2262,0.2366,0.2372,0.2477,0.2462,0.2508,0.2487,0.2503,0.26,0.2302,0.2257,0.25,0.2503,0.2495,0.2487,0.2081,0.2074,0.2069,0.2065,0,0.1727,0.1754,0.178,0.1858,0.1938,0.1995,0.2084,0.2091,0.2198,0.2235,0.2253,0.2271,0.2299,0.2198,0.2193,0.218,0.2279,0.2186,0.2571,0.2135,0.2019,0.2021,0.2032,0.2015,0.202,0.2024,0.2027,0.2028,0.1695,0.1696,0.1746,0.1797,0.189,0.192,0.1898,0.1963,0.1976,0.1952,0.2041,0.1988,0.2001,0.1888,0.183,0.1808,0.1987,0.191,0.193,0.1955,0.1844,0.1724,0.1642,0.1645,0.1647,0.1649,0.1651,0,0.1647,0.1658,0.1696,0.1735,0.1765,0.1857,0.1858,0.1789,0.172,0.1753,0.1731,0.1553,0.147,0.1521,0.1406,0.1385,0.1412,0.1335,0.1368,0.1416,0.1459,0.1326,0.0986,0.0984,0.0982,0.0981,0,0,0.1635,0.1626,0.1608,0.1598,0.1629,0.1608,0.1558,0.1479,0.1454,0.1352,0.1313,0.1385,0.1441,0.1191,0.1156,0.1055,0.1233,0.1008,0.154,0.1627,0.1668,0.1784,0.163,0,0,0,0,0]},{"header":{"parameterUnit":"m.s-1","parameterCategory":2,"la1":30.2991,"la2":30.254,"lo1":-89.0895,"lo2":-89.0444,"dy":0.0017,"dx":0.0017,"nx":28,"ny":28,"refTime":"2025-09-14T03:00:00:Z","depth":"2","parameterNumber":3,"parameterNumberName":"V-component_of_CURRENTS"},"data":[0,0,0,0,0,0,0,0,0,0,0,0,0,0,0,0,0,0,0,0,0,0,0,0,0,0,0,0,0,0,0,0,0,0,0,0,0,0,0,0,0,0,0,0,0,0,0,0,0,0,0,0,0,0,0,0,0,0,0.0049,0.0049,0,0.0021,0.002,0.002,-0.0034,-0.0035,-0.0035,-0.0036,-0.0085,-0.0085,-0.0086,0,0,0,0,0,0,0,0,0,0,0,0,0,0.0037,0.0038,0.0049,0.0049,0.0049,0.0021,0.002,0.002,-0.0034,-0.0035,-0.0035,-0.0036,-0.0085,-0.0085,-0.0086,0,0,0,0,0,0,0,0,0,0,0,0,0,0.0027,0.0038,0.0049,0.0021,0.0018,0.0021,0.002,0.0019,-0.0033,-0.0035,-0.0036,-0.0037,-0.0084,-0.0085,-0.0086,-0.0068,0,0,-0.0089,-0.0089,0,0,0,0,0,0,0,0,0.0027,0.0027,0.0025,0.0023,0.002,-0.0002,-0.0002,-0.001,-0.0033,-0.0017,-0.0036,-0.0037,-0.0056,-0.006,-0.0066,-0.007,-0.0072,-0.0089,-0.0089,-0.009,-0.009,0,0,0,0,0,0,0,0.0028,0.0028,0.0035,0.0025,0.0022,0.0003,0.0,-0.0004,-0.0032,-0.0018,-0.0021,-0.002,-0.0059,-0.0065,-0.0067,-0.0073,-0.0089,-0.009,-0.009,-0.009,-0.0112,-0.0112,0,0,0,0,0,0,0.004,0.0029,0.0036,0.0035,0.0024,0.0005,0.0001,0.0004,-0.0032,-0.0037,-0.0019,-0.0022,-0.0063,-0.0066,-0.0069,-0.0067,-0.009,-0.009,-0.0091,-0.0112,-0.0112,-0.0112,0,0,0,0,0,0,0.004,0.0041,0.0037,0.0033,0.0031,0.0007,0.001,0.0004,-0.0007,-0.0031,-0.0038,-0.0024,-0.0064,-0.0068,-0.0086,-0.0069,-0.0091,-0.0092,-0.0112,-0.0112,-0.0112,-0.0051,0,0,0,0,0,0,0.0039,0.0041,0.0039,0.0034,0.0032,0.004,0.0011,0.0005,-0.0002,-0.0007,-0.0038,-0.0043,-0.0065,-0.0084,-0.0087,-0.007,-0.0092,-0.0112,-0.0112,-0.0112,-0.0053,-0.0049,-0.0045,0,0,0,0,0,0.0039,0.0046,0.004,0.004,0.0034,0.0041,0.0038,0.0014,-0.0001,-0.0002,-0.0031,-0.0043,-0.0087,-0.0085,-0.0088,-0.0071,-0.0112,-0.0112,-0.0112,-0.0054,-0.005,-0.0046,0,0,0,0,0,0,0.0038,0.0042,0.0034,0.0041,0.0041,0.0032,0.0031,0.0019,-0.0003,-0.0011,-0.0041,-0.0048,-0.0059,-0.0076,-0.0073,-0.0081,-0.0102,-0.0102,-0.0057,-0.0053,-0.0049,-0.0019,-0.0093,0,0,0,0,0,0.0041,0.0049,0.0048,0.0055,0.0057,0.0045,0.0043,0.0032,0.0017,0.0005,-0.0017,-0.0042,-0.0059,-0.0065,-0.0086,-0.0082,-0.0087,-0.0076,-0.0073,-0.0069,-0.0049,-0.0048,-0.0041,-0.0113,-0.0113,-0.0113,0,0,0.0048,0.0048,0.0054,0.0056,0.0053,0.0067,0.004,0.0044,0.0051,0.0006,-0.0001,-0.003,-0.0058,-0.0064,-0.0069,-0.0075,-0.0055,-0.0069,-0.0066,-0.0047,-0.0047,-0.004,-0.0034,-0.0113,-0.0113,-0.0113,0,0,0.0067,0.0063,0.0075,0.0081,0.0082,0.008,0.0085,0.0077,0.0065,0.0059,0.0025,0.0009,-0.0018,-0.003,-0.004,-0.0025,-0.0039,-0.0039,0.0014,0.0014,0.0021,0.0026,0.0023,0.0028,-0.0031,-0.0031,-0.0031,0,0.0071,0.0087,0.008,0.0094,0.0106,0.0091,0.0114,0.0106,0.0091,0.0098,0.0061,0.0037,0.0003,0.0018,0.001,-0.0012,-0.0019,0.0002,0.0022,0.0027,0.0032,0.0027,0.0032,-0.0028,-0.0029,-0.0029,-0.0029,0,0.0104,0.0114,0.0125,0.0141,0.0152,0.017,0.0169,0.0173,0.0157,0.0155,0.0155,0.0106,0.01,0.0078,0.0045,0.0068,0.0049,0.0024,0.0018,0.0044,0.0036,0.004,-0.0024,-0.0025,-0.0026,-0.0027,0,0,0.0124,0.0144,0.0147,0.0165,0.018,0.0199,0.0219,0.0245,0.0279,0.0242,0.0279,0.0227,0.021,0.0197,0.0157,0.0147,0.0158,0.0103,0.0101,0.0114,0.0159,0.0115,0.0114,0.0137,0.0138,0.0139,0.0137,0,0.0151,0.0185,0.0191,0.0237,0.0261,0.0268,0.0299,0.032,0.0327,0.0357,0.032,0.0326,0.0254,0.025,0.0234,0.0173,0.0172,0.0161,0.012,0.0119,0.0089,0.0119,0.0132,0.013,0.0141,0.0142,0.0142,0,0.0182,0.0203,0.0245,0.0297,0.0311,0.0337,0.0405,0.0427,0.0467,0.0474,0.0483,0.0457,0.0438,0.0369,0.0308,0.0303,0.0246,0.0195,0.0193,0.0139,0.0083,0.0105,0.0136,0.0149,0.0148,0.0148,0.0147,0,0.0206,0.0246,0.0283,0.0299,0.035,0.0379,0.0408,0.0462,0.0506,0.0548,0.059,0.0565,0.0552,0.0481,0.036,0.0341,0.029,0.0254,0.017,0.0166,0.0164,0.0158,0.0236,0.0236,0.0236,0.0236,0.0236,0,0.0239,0.027,0.0295,0.032,0.0385,0.0406,0.0487,0.0521,0.0589,0.0664,0.0645,0.0688,0.0577,0.053,0.0416,0.0301,0.0335,0.0196,0.017,0.0182,0.0178,0.0182,0.0175,0.0236,0.0236,0.0236,0.0236,0,0.0265,0.0276,0.0325,0.0375,0.0395,0.044,0.0528,0.0599,0.0648,0.0747,0.0763,0.078,0.0712,0.0599,0.048,0.0375,0.0265,0.0219,0.0234,0.021,0.0131,0.0127,0.0145,0.0144,0.0142,0.0141,0.0141,0,0.028,0.0304,0.0362,0.0401,0.0423,0.0489,0.0553,0.0617,0.0702,0.08,0.086,0.0836,0.0823,0.0637,0.0456,0.028,0.0256,0.0179,0.0145,0.0153,0.0125,0.0124,0.0122,0.0167,0.0166,0.0166,0.0165,0,0.0319,0.0334,0.0382,0.0451,0.0512,0.0591,0.068,0.0751,0.0842,0.0912,0.0984,0.0969,0.0824,0.0647,0.0414,0.0294,0.0203,0.0163,0.019,0.0176,0.0169,0.0143,0.0142,0.0161,0.0162,0.0162,0.0162,0.0162,0.035,0.0388,0.0446,0.0518,0.0592,0.0685,0.0743,0.0843,0.0943,0.1031,0.1035,0.0997,0.0844,0.0523,0.0346,0.0165,0.0173,0.01,0.0103,0.0107,0.0097,0.0088,0.0063,0.0063,0.0063,0.0063,0.0063,0,0.0395,0.044,0.0511,0.0596,0.0677,0.0705,0.0832,0.0882,0.0973,0.1028,0.1045,0.0873,0.0702,0.0522,0.0253,0.0092,0.0092,0.004,0.0082,0.0087,0.0091,0.0083,0.0044,0.0043,0.0043,0.0043,0,0,0.0422,0.0492,0.0527,0.0649,0.0709,0.0797,0.0854,0.0915,0.0966,0.0978,0.0948,0.0913,0.0725,0.0523,0.0329,0.0185,0.0166,0.0151,0.0183,0.0261,0.0267,0.0142,0.0136,0,0,0,0,0]}],[{"header":{"parameterUnit":"m.s-1","parameterCategory":2,"la1":30.2991,"la2":30.254,"lo1":-89.0895,"lo2":-89.0444,"dy":0.0017,"dx":0.0017,"nx":28,"ny":28,"refTime":"2025-09-14T03:00:00:Z","depth":"4","parameterNumber":2,"parameterNumberName":"U-component_of_CURRENTS"},"data":[0,0,0,0,0,0,0,0,0,0,0,0,0,0,0,0,0,0,0,0,0,0,0,0,0,0,0,0,0,0,0,0,0,0,0,0,0,0,0,0,0,0,0,0,0,0,0,0,0,0,0,0,0,0,0,0,0,0,0.0673,0.0673,0,0.0716,0.0717,0.0717,0.0764,0.0764,0.0765,0.0765,0.0807,0.0808,0.0808,0,0,0,0,0,0,0,0,0,0,0,0,0,0.0718,0.0717,0.0673,0.0673,0.0673,0.0716,0.0717,0.0717,0.0764,0.0764,0.0765,0.0765,0.0807,0.0808,0.0808,0,0,0,0,0,0,0,0,0,0,0,0,0,0.0725,0.0716,0.0673,0.07,0.0703,0.0716,0.0717,0.0718,0.0764,0.0764,0.0765,0.0766,0.0806,0.0807,0.0808,0.0801,0,0,0.0812,0.0812,0,0,0,0,0,0,0,0,0.0725,0.0724,0.0695,0.0698,0.0701,0.0733,0.0748,0.0745,0.0763,0.0743,0.0765,0.0766,0.078,0.0783,0.0793,0.0803,0.0805,0.0812,0.0812,0.0813,0.0813,0,0,0,0,0,0,0,0.0724,0.0723,0.0692,0.0696,0.0699,0.074,0.0741,0.0748,0.0759,0.0745,0.0748,0.0749,0.0782,0.0792,0.0795,0.0806,0.0812,0.0813,0.0813,0.0814,0.0874,0.0875,0,0,0,0,0,0,0.0708,0.0722,0.0691,0.0693,0.0712,0.0738,0.074,0.0724,0.0759,0.0764,0.0748,0.075,0.079,0.0793,0.0796,0.0834,0.0813,0.0814,0.0814,0.0873,0.0874,0.0875,0,0,0,0,0,0,0.0709,0.0705,0.0689,0.0708,0.0709,0.0736,0.0718,0.0724,0.0762,0.0761,0.0767,0.0782,0.0791,0.0795,0.0828,0.0835,0.0814,0.0815,0.0872,0.0873,0.0875,0.0882,0,0,0,0,0,0,0.071,0.0704,0.0713,0.0706,0.0707,0.0713,0.0718,0.0725,0.0758,0.0763,0.0791,0.0794,0.0792,0.0827,0.0829,0.0836,0.0816,0.0871,0.0872,0.0874,0.0881,0.0884,0.0886,0,0,0,0,0,0.0711,0.0705,0.0713,0.071,0.0708,0.0713,0.0719,0.0742,0.0759,0.0779,0.0801,0.0795,0.084,0.0829,0.0831,0.0838,0.087,0.0872,0.0874,0.0879,0.0883,0.0886,0,0,0,0,0,0,0.0732,0.0709,0.0717,0.0706,0.072,0.0721,0.0736,0.0758,0.0792,0.0797,0.0809,0.0814,0.0841,0.0846,0.0834,0.0863,0.0853,0.0856,0.0856,0.0859,0.0862,0.0878,0.0817,0,0,0,0,0,0.0738,0.0726,0.0721,0.0718,0.0718,0.0736,0.075,0.0763,0.0779,0.0796,0.0818,0.0836,0.0847,0.0861,0.0869,0.089,0.0911,0.0898,0.09,0.0903,0.0919,0.0967,0.0976,0.0882,0.0882,0.0882,0,0,0.074,0.0732,0.0724,0.0724,0.0729,0.0729,0.0747,0.0759,0.077,0.0792,0.0826,0.0846,0.0856,0.0874,0.0887,0.0884,0.0937,0.0905,0.0907,0.0923,0.0971,0.098,0.0988,0.0884,0.0884,0.0883,0,0,0.0734,0.0732,0.0722,0.0728,0.0738,0.0742,0.0752,0.0767,0.0788,0.0817,0.0833,0.0872,0.0889,0.0905,0.091,0.0939,0.0947,0.0937,0.0967,0.1013,0.1021,0.1029,0.1051,0.1061,0.0942,0.0942,0.0942,0,0.0746,0.0726,0.0727,0.0724,0.0728,0.0747,0.0747,0.0761,0.0795,0.0823,0.0826,0.0897,0.09,0.094,0.0946,0.0944,0.0969,0.0948,0.1017,0.1025,0.1033,0.1054,0.1064,0.0943,0.0943,0.0942,0.0942,0,0.0731,0.0723,0.0715,0.071,0.0724,0.0721,0.0731,0.0758,0.0786,0.0817,0.0878,0.0905,0.0961,0.0955,0.0955,0.1015,0.1013,0.101,0.1006,0.1042,0.1062,0.1073,0.0944,0.0943,0.0943,0.0943,0,0,0.073,0.0706,0.0709,0.0705,0.0714,0.0719,0.0733,0.0765,0.0801,0.0845,0.0911,0.0937,0.0994,0.1007,0.1028,0.1062,0.112,0.1064,0.1066,0.1083,0.1217,0.1117,0.1119,0.1135,0.1138,0.1139,0.1203,0,0.0722,0.0701,0.0703,0.0698,0.0684,0.0706,0.073,0.077,0.0811,0.088,0.0933,0.0998,0.0999,0.1044,0.1084,0.1127,0.1153,0.1103,0.1184,0.1186,0.109,0.113,0.1147,0.1211,0.1213,0.1215,0.1216,0,0.0711,0.07,0.0688,0.0689,0.0691,0.0704,0.0757,0.0786,0.0873,0.0917,0.1004,0.1058,0.1147,0.1128,0.1232,0.1207,0.1215,0.1228,0.1231,0.1148,0.1107,0.1173,0.1236,0.1234,0.1233,0.1231,0.123,0,0.0703,0.0688,0.0681,0.0678,0.0692,0.0711,0.0737,0.0811,0.0861,0.0965,0.1027,0.1133,0.1208,0.1257,0.1298,0.128,0.1387,0.1363,0.1273,0.1266,0.1333,0.1324,0.1412,0.1412,0.1411,0.1411,0.1411,0,0.0675,0.0671,0.0678,0.0671,0.0689,0.0719,0.0775,0.0809,0.0916,0.099,0.107,0.1138,0.1246,0.1317,0.1333,0.1347,0.1423,0.1291,0.1284,0.1331,0.1322,0.1339,0.133,0.1414,0.1413,0.1413,0.1412,0,0.0652,0.0652,0.0649,0.0671,0.0676,0.0704,0.0775,0.0828,0.0926,0.1027,0.1072,0.1184,0.1272,0.1345,0.1425,0.1383,0.1404,0.1372,0.142,0.1412,0.1239,0.123,0.1294,0.1291,0.1289,0.1287,0.1285,0,0.0627,0.0619,0.0644,0.0651,0.0657,0.0701,0.0735,0.0824,0.0883,0.1034,0.1078,0.1198,0.1261,0.1309,0.1367,0.1402,0.1368,0.1357,0.1293,0.1245,0.1232,0.1226,0.122,0.1281,0.128,0.128,0.1279,0,0.0583,0.061,0.0618,0.0635,0.0659,0.068,0.0731,0.0772,0.0896,0.0991,0.1071,0.112,0.1204,0.1259,0.1294,0.1304,0.1364,0.1331,0.1335,0.1275,0.123,0.1218,0.1215,0.1271,0.1272,0.1273,0.1273,0,0.0574,0.0573,0.0599,0.0615,0.0642,0.0651,0.0677,0.0741,0.0813,0.0976,0.0991,0.1106,0.12,0.1205,0.1237,0.1252,0.1221,0.1159,0.1172,0.1181,0.1112,0.1037,0.1024,0,0,0,0,0,0.0554,0.0549,0.0562,0.058,0.0614,0.0626,0.0676,0.0719,0.083,0.0868,0.0936,0.1006,0.1062,0.1102,0.1096,0.1169,0.1217,0.1151,0.115,0.1225,0.1235,0.1161,0,0,0,0,0,0,0.0543,0.0551,0.0554,0.056,0.0568,0.0595,0.0623,0.0688,0.071,0.0823,0.0862,0.0937,0.1009,0.108,0.1083,0.1095,0.1066,0.1216,0.1213,0.122,0.1228,0.1236,0.1164,0,0,0,0,0]},{"header":{"parameterUnit":"m.s-1","parameterCategory":2,"la1":30.2991,"la2":30.254,"lo1":-89.0895,"lo2":-89.0444,"dy":0.0017,"dx":0.0017,"nx":28,"ny":28,"refTime":"2025-09-14T03:00:00:Z","depth":"4","parameterNumber":3,"parameterNumberName":"V-component_of_CURRENTS"},"data":[0,0,0,0,0,0,0,0,0,0,0,0,0,0,0,0,0,0,0,0,0,0,0,0,0,0,0,0,0,0,0,0,0,0,0,0,0,0,0,0,0,0,0,0,0,0,0,0,0,0,0,0,0,0,0,0,0,0,0.0112,0.0112,0,0.0093,0.0093,0.0092,0.0072,0.0071,0.0071,0.0071,0.0053,0.0053,0.0052,0,0,0,0,0,0,0,0,0,0,0,0,0,0.0095,0.0095,0.0112,0.0112,0.0112,0.0093,0.0093,0.0092,0.0072,0.0071,0.0071,0.0071,0.0053,0.0053,0.0052,0,0,0,0,0,0,0,0,0,0,0,0,0,0.009,0.0095,0.0112,0.0101,0.01,0.0093,0.0093,0.0092,0.0072,0.0071,0.0071,0.0071,0.0053,0.0053,0.0052,0.0053,0,0,0.0051,0.005,0,0,0,0,0,0,0,0,0.009,0.009,0.0103,0.0102,0.0101,0.0086,0.008,0.008,0.0072,0.008,0.0071,0.0071,0.0066,0.0064,0.0058,0.0052,0.0051,0.0051,0.005,0.005,0.005,0,0,0,0,0,0,0,0.0091,0.0091,0.0103,0.0103,0.0101,0.0085,0.0084,0.008,0.0073,0.008,0.0078,0.0079,0.0065,0.0059,0.0058,0.0051,0.0051,0.005,0.005,0.005,0.0039,0.0039,0,0,0,0,0,0,0.0099,0.0092,0.0103,0.0102,0.0097,0.0085,0.0084,0.0089,0.0073,0.0071,0.008,0.0079,0.006,0.0058,0.0057,0.0069,0.005,0.005,0.0049,0.0039,0.0039,0.0039,0,0,0,0,0,0,0.0099,0.0101,0.0104,0.0098,0.0097,0.0086,0.0092,0.0089,0.0087,0.0073,0.0071,0.0081,0.006,0.0058,0.0052,0.0067,0.0049,0.0049,0.0039,0.0039,0.0039,0.0084,0,0,0,0,0,0,0.0099,0.0101,0.0103,0.0099,0.0098,0.0111,0.0092,0.0089,0.0089,0.0087,0.0074,0.0071,0.0059,0.0052,0.0051,0.0066,0.0048,0.0039,0.0039,0.0039,0.0083,0.0086,0.0089,0,0,0,0,0,0.0098,0.0108,0.0103,0.0104,0.0103,0.0112,0.011,0.01,0.0089,0.0095,0.0077,0.0072,0.0052,0.0052,0.005,0.0066,0.0039,0.0039,0.0039,0.0081,0.0085,0.0089,0,0,0,0,0,0,0.0104,0.0107,0.0101,0.0112,0.0115,0.0109,0.0112,0.0104,0.0094,0.0091,0.0072,0.0069,0.0069,0.0058,0.0058,0.0061,0.0045,0.0045,0.0078,0.0081,0.0084,0.0093,0.0048,0,0,0,0,0,0.0106,0.0112,0.0115,0.0123,0.0127,0.0119,0.0119,0.0116,0.0109,0.0104,0.0093,0.0079,0.0067,0.0067,0.0056,0.006,0.0036,0.0068,0.0071,0.0074,0.0078,0.0044,0.0044,0.004,0.004,0.004,0,0,0.0109,0.0113,0.0115,0.0124,0.0124,0.0137,0.0119,0.0128,0.0136,0.0104,0.0108,0.0089,0.0069,0.007,0.007,0.0065,0.0062,0.0074,0.0076,0.0079,0.0044,0.0044,0.0045,0.004,0.004,0.004,0,0,0.0123,0.0125,0.0135,0.0144,0.0151,0.0152,0.0158,0.0158,0.0155,0.0156,0.0131,0.0119,0.0109,0.0096,0.0087,0.01,0.0075,0.0099,0.0128,0.0095,0.0095,0.0095,0.0066,0.0063,0.0105,0.0105,0.0105,0,0.0124,0.0143,0.014,0.0156,0.0169,0.0162,0.0184,0.0181,0.0177,0.0176,0.0165,0.0136,0.0121,0.0115,0.0119,0.0108,0.0084,0.0119,0.0099,0.0099,0.0098,0.0068,0.0064,0.0107,0.0107,0.0107,0.0107,0,0.0149,0.0164,0.0175,0.0194,0.0207,0.0227,0.0231,0.0237,0.0232,0.0224,0.0216,0.0186,0.017,0.0163,0.0147,0.0138,0.012,0.0104,0.0093,0.0101,0.0069,0.0064,0.0111,0.011,0.0109,0.0109,0,0,0.0153,0.0185,0.0191,0.0209,0.0233,0.0248,0.0266,0.0281,0.0288,0.0274,0.0274,0.0251,0.023,0.0218,0.0193,0.0166,0.0139,0.0139,0.0136,0.0115,0.0067,0.0071,0.0065,0.0118,0.0117,0.0117,0.0048,0,0.0175,0.0214,0.0227,0.0269,0.0292,0.0301,0.0321,0.033,0.0325,0.0322,0.0289,0.0278,0.0253,0.0244,0.0214,0.0155,0.0128,0.0159,0.0058,0.0055,0.0061,0.006,0.0115,0.0044,0.0043,0.0042,0.0041,0,0.0199,0.0223,0.0267,0.0311,0.0323,0.0349,0.0382,0.0398,0.039,0.0383,0.0363,0.0331,0.0297,0.0268,0.0181,0.0201,0.0142,0.0093,0.0088,0.0074,0.005,0.0032,0.0032,0.0033,0.0033,0.0034,0.0034,0,0.0209,0.0255,0.0294,0.031,0.0353,0.0379,0.0405,0.0416,0.0432,0.0419,0.0415,0.0369,0.0342,0.0265,0.0173,0.0174,0.0065,0.0051,-0.0002,-0.0003,-0.0005,-0.0005,-0.0015,-0.0015,-0.0015,-0.0015,-0.0014,0,0.0233,0.0263,0.0304,0.0327,0.0375,0.0401,0.0447,0.0459,0.0473,0.0486,0.0448,0.0431,0.0338,0.0266,0.018,0.0078,0.007,0.0004,-0.002,0.0015,0.0019,-0.0009,-0.0007,-0.0017,-0.0017,-0.0016,-0.0016,0,0.024,0.0265,0.0308,0.036,0.0381,0.0417,0.0484,0.0508,0.052,0.0531,0.0529,0.0475,0.0387,0.0288,0.0156,0.0092,-0.0011,-0.0049,-0.0,-0.002,-0.0059,-0.0054,-0.0109,-0.011,-0.011,-0.011,-0.011,0,0.0247,0.0271,0.033,0.0356,0.0385,0.0443,0.0482,0.0526,0.0549,0.055,0.0547,0.0481,0.043,0.0253,0.0147,-0.0006,-0.003,-0.0082,-0.007,-0.0051,-0.0069,-0.0063,-0.0058,-0.0111,-0.0111,-0.0111,-0.0111,0,0.0256,0.0277,0.0311,0.0367,0.0415,0.0468,0.0526,0.0549,0.0588,0.0595,0.0559,0.0479,0.038,0.0252,0.014,0.0025,-0.0045,-0.0086,-0.0086,-0.0075,-0.0054,-0.007,-0.0064,-0.0113,-0.0112,-0.0112,-0.0112,0,0.0258,0.028,0.0325,0.0376,0.0429,0.0476,0.0514,0.0547,0.0578,0.0585,0.0565,0.047,0.0419,0.0266,0.0153,0.0055,0.0029,-0.0009,-0.0013,-0.0013,0.0038,0.0081,0.0045,0,0,0,0,0,0.026,0.0287,0.033,0.0385,0.0437,0.0472,0.0532,0.0564,0.0599,0.0578,0.058,0.049,0.0342,0.0271,0.0174,0.0139,0.0006,0.002,-0.0041,-0.0119,-0.0118,-0.0073,0,0,0,0,0,0,0.0259,0.0299,0.0325,0.0382,0.0419,0.0481,0.052,0.0547,0.054,0.0555,0.0477,0.0456,0.0309,0.0395,0.0167,0.0138,0.0083,-0.0043,-0.0046,-0.012,-0.0119,-0.0118,-0.0071,0,0,0,0,0]}]]